Location: Central Falls
(41.8900°N, 71.3929°W)
Time: 21:06:50
(UTC+00:00)

deb Explorer IX - Visible Passes

Search period start: 06 December 2023 00:00
Search period end: 16 December 2023 00:00
Orbit: 524 x 934 km, 38.8° (Epoch: 05 December)

Date Brightness Start Highest point End Pass type
(mag) Time Alt. Az. Time Alt. Az. Time Alt. Az.
08 Dec ? 22:57:54 10° SSE 22:58:46 11° SSE 22:58:46 11° SSE visible
09 Dec ? 23:47:36 10° SW 23:48:57 18° SSW 23:48:57 18° SSW visible
10 Dec ? 22:56:09 10° SSW 22:59:10 20° SSE 22:59:42 20° SE visible
11 Dec ? 22:04:56 10° S 22:07:19 15° SSE 22:09:41 10° ESE visible
11 Dec ? 23:47:37 10° WSW 23:49:42 26° SW 23:49:42 26° SW visible
12 Dec ? 22:55:45 10° SW 22:59:26 33° SSE 23:00:19 30° SE visible
13 Dec ? 22:03:55 10° SW 22:07:27 26° SSE 22:10:51 10° E visible
13 Dec ? 23:47:46 10° WSW 23:50:12 32° SW 23:50:12 32° SW visible
14 Dec ? 22:55:39 10° WSW 22:59:37 47° S 23:00:42 36° SE visible
15 Dec ? 22:03:29 10° SW 22:07:31 41° SSE 22:11:10 11° E visible
15 Dec ? 23:47:53 10° W 23:50:30 35° WSW 23:50:30 35° WSW visible
